Weather History for Denton, TX

Change the Weather History Date:

Sunday, March 9, 2014

  Actual Average Record
Temperature  
Mean Temperature 50 °F -  
Max Temperature 63 °F 60 °F 81 °F (2007)
Min Temperature 36 °F 39 °F 27 °F (1998)
Degree Days  
Heating Degree Days 16    
Moisture  
Dew Point 35 °F    
Average Humidity 65    
Maximum Humidity 86    
Minimum Humidity 39    
Precipitation  
Precipitation 0.00 in - - ()
Sea Level Pressure  
Sea Level Pressure 30.27 in    
Wind  
Wind Speed 7 mph (NNW)    
Max Wind Speed 13 mph    
Max Gust Speed -    
Visibility 10 miles    
Events      
Averages and records for this station are not official NWS values.
T = Trace of Precipitation, MM = Missing Value Source: NWS Daily Summary

Daily Weather History Graph

Daily Weather History Graph

Search for Another Location

Airport:

Trip Planner

Search our weather history database for the weather conditions in past years. The results will help you decide how hot, cold, wet, or windy it might be!

Date:

Astronomy

Mar. 09, 2014 Rise Set
Actual Time 7:46 AM CDT 7:32 PM CDT
Civil Twilight 7:22 AM CDT 7:56 PM CDT
Nautical Twilight 6:53 AM CDT 8:25 PM CDT
Astronomical Twilight 6:24 AM CDT 8:54 PM CDT
Moon 1:38 PM CDT (3/9) 3:00 AM CDT (3/9)
Length of Visible Light 12h 34m
Length of Day
11h 45m
First Quarter, 61% of the Moon is Illuminated
Mar 9
First Quarter
Mar 16
Full
Mar 23
Last Quarter
Mar 30
New
Apr 7
First Quarter

Hourly Weather History & Observations

Time (CDT) Temp. Windchill Dew Point Humidity Pressure Visibility Wind Dir Wind Speed Gust Speed Precip Events Conditions
12:53 AM 36.0 °F 28.5 °F 30.9 °F 82% 30.33 in 10.0 mi NNW 10.4 mph - N/A   Overcast
1:53 AM 36.0 °F 28.5 °F 30.0 °F 79% 30.33 in 9.0 mi NNW 10.4 mph - N/A   Overcast
3:53 AM 36.0 °F 27.5 °F 30.9 °F 82% 30.30 in 8.0 mi NNW 12.7 mph - N/A   Overcast
4:53 AM 37.0 °F 31.0 °F 30.9 °F 79% 30.30 in 8.0 mi NNW 8.1 mph - N/A   Overcast
5:53 AM 37.9 °F 32.7 °F 32.0 °F 79% 30.32 in 9.0 mi NW 6.9 mph - N/A   Overcast
6:53 AM 39.0 °F 32.3 °F 32.0 °F 76% 30.33 in 10.0 mi NNW 10.4 mph - N/A   Overcast
7:53 AM 39.0 °F 33.4 °F 30.9 °F 73% 30.34 in 9.0 mi NNW 8.1 mph - N/A   Overcast
8:53 AM 39.9 °F 35.1 °F 30.9 °F 70% 30.34 in 10.0 mi NNW 6.9 mph - N/A   Overcast
9:53 AM 43.0 °F 37.7 °F 32.0 °F 65% 30.35 in 9.0 mi North 9.2 mph - N/A   Overcast
10:53 AM 45.0 °F 41.8 °F 34.0 °F 65% 30.36 in 9.0 mi NNE 5.8 mph - N/A   Overcast
11:53 AM 48.9 °F - 36.0 °F 61% 30.35 in 9.0 mi North 9.2 mph - N/A   Overcast
12:53 PM 53.1 °F - 37.9 °F 57% 30.33 in 9.0 mi North 9.2 mph - N/A   Overcast
1:53 PM 55.9 °F - 37.9 °F 51% 30.29 in 10.0 mi Calm Calm - N/A   Scattered Clouds
2:53 PM 57.0 °F - 39.0 °F 51% 30.25 in 10.0 mi SW 3.5 mph - N/A   Clear
3:53 PM 61.0 °F - 39.0 °F 44% 30.21 in 10.0 mi Calm Calm - N/A   Clear
4:53 PM 61.0 °F - 37.9 °F 42% 30.20 in 10.0 mi Calm Calm - N/A   Clear
5:53 PM 63.0 °F - 37.9 °F 40% 30.18 in 10.0 mi Calm Calm - N/A   Clear
6:53 PM 61.0 °F - 36.0 °F 39% 30.18 in 10.0 mi Calm Calm - N/A   Clear
7:53 PM 55.0 °F - 39.9 °F 57% 30.19 in 10.0 mi SE 5.8 mph - N/A   Clear
8:53 PM 51.1 °F - 39.9 °F 66% 30.19 in 10.0 mi Calm Calm - N/A   Clear
9:53 PM 48.9 °F - 39.0 °F 69% 30.19 in 10.0 mi South 3.5 mph - N/A   Clear
10:53 PM 48.0 °F - 39.0 °F 71% 30.20 in 10.0 mi SSW 3.5 mph - N/A   Clear
11:53 PM 46.0 °F 44.8 °F 39.0 °F 76% 30.18 in 10.0 mi South 3.5 mph - N/A   Clear
12:53 AM 41.0 °F - 37.0 °F 86% 30.17 in 10.0 mi Calm Calm - N/A   Clear